Date_Time,Julian_Date,Latitude,Longitude,Instrument_Depth,U,V,Speed,Direction
(yyyy-mm-dd hh:mn:ss UTC),(JD),(+ deg. North),(+ deg. East),(m),(cm/s),(cm/s),(cm/s),(deg True)
1982-09-18 18:30:00 UTC,2445231.270833,29.6650,-93.4789,0086,-2.76,1.17,3.0000,293.0000
1982-09-18 19:00:00 UTC,2445231.291667,29.6650,-93.4789,0086,-4.49,2.19,5.0000,296.0000
1982-09-18 19:30:00 UTC,2445231.312500,29.6650,-93.4789,0086,-3.60,1.75,4.0000,296.0000
1982-09-18 20:00:00 UTC,2445231.333333,29.6650,-93.4789,0086,-2.76,1.17,3.0000,293.0000
1982-09-18 20:30:00 UTC,2445231.354167,29.6650,-93.4789,0086,-1.78,0.91,2.0000,297.0000
1982-09-18 21:00:00 UTC,2445231.375000,29.6650,-93.4789,0086,-1.80,0.88,2.0000,296.0000
1982-09-18 21:30:00 UTC,2445231.395833,29.6650,-93.4789,0086,-1.91,0.58,2.0000,287.0000
1982-09-18 22:00:00 UTC,2445231.416667,29.6650,-93.4789,0086,-1.96,0.38,2.0000,281.0000
1982-09-18 22:30:00 UTC,2445231.437500,29.6650,-93.4789,0086,-1.00,0.09,1.0000,275.0000
1982-09-18 23:00:00 UTC,2445231.458333,29.6650,-93.4789,0086,-0.00,-0.00,0.0000,187.0000
1982-09-18 23:30:00 UTC,2445231.479167,29.6650,-93.4789,0086,0.00,-0.00,0.0000,154.0000
1982-09-19 00:00:00 UTC,2445231.500000,29.6650,-93.4789,0086,0.52,-0.86,1.0000,149.0000
1982-09-19 00:30:00 UTC,2445231.520833,29.6650,-93.4789,0086,0.50,-0.87,1.0000,150.0000
1982-09-19 01:00:00 UTC,2445231.541667,29.6650,-93.4789,0086,0.63,-0.78,1.0000,141.0000
1982-09-19 01:30:00 UTC,2445231.562500,29.6650,-93.4789,0086,1.70,-1.06,2.0000,122.0000
1982-09-19 02:00:00 UTC,2445231.583333,29.6650,-93.4789,0086,2.62,-1.45,3.0000,119.0000
1982-09-19 02:30:00 UTC,2445231.604167,29.6650,-93.4789,0086,2.62,-1.45,3.0000,119.0000
1982-09-19 03:00:00 UTC,2445231.625000,29.6650,-93.4789,0086,0.86,-0.52,1.0000,121.0000
1982-09-19 03:30:00 UTC,2445231.645833,29.6650,-93.4789,0086,0.85,-0.53,1.0000,122.0000
1982-09-19 04:00:00 UTC,2445231.666667,29.6650,-93.4789,0086,0.86,-0.52,1.0000,121.0000
1982-09-19 04:30:00 UTC,2445231.687500,29.6650,-93.4789,0086,0.00,-0.00,0.0000,122.0000
1982-09-19 05:00:00 UTC,2445231.708333,29.6650,-93.4789,0086,0.00,-0.00,0.0000,127.0000
1982-09-19 05:30:00 UTC,2445231.729167,29.6650,-93.4789,0086,0.00,-0.00,0.0000,120.0000
1982-09-19 06:00:00 UTC,2445231.750000,29.6650,-93.4789,0086,-0.00,0.00,0.0000,317.0000
1982-09-19 06:30:00 UTC,2445231.770833,29.6650,-93.4789,0086,-0.59,0.81,1.0000,324.0000
1982-09-19 07:00:00 UTC,2445231.791667,29.6650,-93.4789,0086,-0.63,0.78,1.0000,321.0000
1982-09-19 07:30:00 UTC,2445231.812500,29.6650,-93.4789,0086,-1.58,1.23,2.0000,308.0000
1982-09-19 08:00:00 UTC,2445231.833333,29.6650,-93.4789,0086,-2.82,1.03,3.0000,290.0000
1982-09-19 08:30:00 UTC,2445231.854167,29.6650,-93.4789,0086,-3.73,1.43,4.0000,291.0000
1982-09-19 09:00:00 UTC,2445231.875000,29.6650,-93.4789,0086,-4.41,2.35,5.0000,298.0000
1982-09-19 09:30:00 UTC,2445231.895833,29.6650,-93.4789,0086,-4.15,2.80,5.0000,304.0000
1982-09-19 10:00:00 UTC,2445231.916667,29.6650,-93.4789,0086,-3.60,3.47,5.0000,314.0000
1982-09-19 10:30:00 UTC,2445231.937500,29.6650,-93.4789,0086,-1.55,2.57,3.0000,329.0000
1982-09-19 11:00:00 UTC,2445231.958333,29.6650,-93.4789,0086,-0.12,0.99,1.0000,353.0000
1982-09-19 11:30:00 UTC,2445231.979167,29.6650,-93.4789,0086,0.78,0.63,1.0000,51.0000
1982-09-19 12:00:00 UTC,2445232.000000,29.6650,-93.4789,0086,0.97,0.24,1.0000,76.0000
1982-09-19 12:30:00 UTC,2445232.020833,29.6650,-93.4789,0086,1.00,0.07,1.0000,86.0000
1982-09-19 13:00:00 UTC,2445232.041667,29.6650,-93.4789,0086,0.00,0.00,0.0000,81.0000
1982-09-19 13:30:00 UTC,2445232.062500,29.6650,-93.4789,0086,0.59,0.81,1.0000,36.0000
1982-09-19 14:00:00 UTC,2445232.083333,29.6650,-93.4789,0086,1.12,1.66,2.0000,34.0000
1982-09-19 14:30:00 UTC,2445232.104167,29.6650,-93.4789,0086,1.23,1.58,2.0000,38.0000
1982-09-19 15:00:00 UTC,2445232.125000,29.6650,-93.4789,0086,1.46,1.36,2.0000,47.0000
1982-09-19 15:30:00 UTC,2445232.145833,29.6650,-93.4789,0086,2.19,2.05,3.0000,47.0000
1982-09-19 16:00:00 UTC,2445232.166667,29.6650,-93.4789,0086,2.62,3.02,4.0000,41.0000
1982-09-19 16:30:00 UTC,2445232.187500,29.6650,-93.4789,0086,2.35,3.24,4.0000,36.0000
1982-09-19 17:00:00 UTC,2445232.208333,29.6650,-93.4789,0086,1.72,2.46,3.0000,35.0000
1982-09-19 17:30:00 UTC,2445232.229167,29.6650,-93.4789,0086,0.34,0.94,1.0000,20.0000
1982-09-19 18:00:00 UTC,2445232.250000,29.6650,-93.4789,0086,-0.80,0.60,1.0000,307.0000
1982-09-19 18:30:00 UTC,2445232.270833,29.6650,-93.4789,0086,-1.92,0.55,2.0000,286.0000
1982-09-19 19:00:00 UTC,2445232.291667,29.6650,-93.4789,0086,-1.99,0.24,2.0000,277.0000
1982-09-19 19:30:00 UTC,2445232.312500,29.6650,-93.4789,0086,-1.99,0.17,2.0000,275.0000
1982-09-19 20:00:00 UTC,2445232.333333,29.6650,-93.4789,0086,-1.00,-0.00,1.0000,270.0000
1982-09-19 20:30:00 UTC,2445232.354167,29.6650,-93.4789,0086,-0.87,-0.48,1.0000,241.0000
1982-09-19 21:00:00 UTC,2445232.375000,29.6650,-93.4789,0086,-1.70,-1.06,2.0000,238.0000
1982-09-19 21:30:00 UTC,2445232.395833,29.6650,-93.4789,0086,-3.68,-1.56,4.0000,247.0000
1982-09-19 22:00:00 UTC,2445232.416667,29.6650,-93.4789,0086,-3.80,-1.24,4.0000,252.0000
1982-09-19 22:30:00 UTC,2445232.437500,29.6650,-93.4789,0086,-4.85,-1.21,5.0000,256.0000
1982-09-19 23:00:00 UTC,2445232.458333,29.6650,-93.4789,0086,-4.89,-1.04,5.0000,258.0000
1982-09-19 23:30:00 UTC,2445232.479167,29.6650,-93.4789,0086,-2.91,-0.73,3.0000,256.0000
1982-09-20 00:00:00 UTC,2445232.500000,29.6650,-93.4789,0086,-1.75,-0.97,2.0000,241.0000
1982-09-20 00:30:00 UTC,2445232.520833,29.6650,-93.4789,0086,-1.85,-2.36,3.0000,218.0000
1982-09-20 01:00:00 UTC,2445232.541667,29.6650,-93.4789,0086,-0.98,-2.84,3.0000,199.0000
1982-09-20 01:30:00 UTC,2445232.562500,29.6650,-93.4789,0086,0.83,-2.88,3.0000,164.0000
1982-09-20 02:00:00 UTC,2445232.583333,29.6650,-93.4789,0086,2.29,-3.28,4.0000,145.0000
1982-09-20 02:30:00 UTC,2445232.604167,29.6650,-93.4789,0086,3.78,-4.66,6.0000,141.0000
1982-09-20 03:00:00 UTC,2445232.625000,29.6650,-93.4789,0086,4.09,-4.39,6.0000,137.0000
1982-09-20 03:30:00 UTC,2445232.645833,29.6650,-93.4789,0086,3.35,-3.72,5.0000,138.0000
1982-09-20 04:00:00 UTC,2445232.666667,29.6650,-93.4789,0086,1.36,-2.67,3.0000,153.0000
1982-09-20 04:30:00 UTC,2445232.687500,29.6650,-93.4789,0086,0.10,-2.00,2.0000,177.0000
1982-09-20 05:00:00 UTC,2445232.708333,29.6650,-93.4789,0086,0.39,-0.92,1.0000,157.0000
1982-09-20 05:30:00 UTC,2445232.729167,29.6650,-93.4789,0086,0.73,-0.68,1.0000,133.0000
1982-09-20 06:00:00 UTC,2445232.750000,29.6650,-93.4789,0086,-0.19,0.98,1.0000,349.0000
1982-09-20 06:30:00 UTC,2445232.770833,29.6650,-93.4789,0086,-0.31,2.98,3.0000,354.0000
1982-09-20 07:00:00 UTC,2445232.791667,29.6650,-93.4789,0086,1.38,4.81,5.0000,16.0000
1982-09-20 07:30:00 UTC,2445232.812500,29.6650,-93.4789,0086,3.51,7.19,8.0000,26.0000
1982-09-20 08:00:00 UTC,2445232.833333,29.6650,-93.4789,0086,4.30,10.13,11.0000,23.0000
1982-09-20 08:30:00 UTC,2445232.854167,29.6650,-93.4789,0086,3.71,11.41,12.0000,18.0000
1982-09-20 09:00:00 UTC,2445232.875000,29.6650,-93.4789,0086,2.25,9.74,10.0000,13.0000
1982-09-20 09:30:00 UTC,2445232.895833,29.6650,-93.4789,0086,0.14,8.00,8.0000,1.0000
1982-09-20 10:00:00 UTC,2445232.916667,29.6650,-93.4789,0086,-1.14,5.89,6.0000,349.0000
1982-09-20 10:30:00 UTC,2445232.937500,29.6650,-93.4789,0086,-1.85,2.36,3.0000,322.0000
1982-09-20 11:00:00 UTC,2445232.958333,29.6650,-93.4789,0086,-2.98,-0.37,3.0000,263.0000
1982-09-20 11:30:00 UTC,2445232.979167,29.6650,-93.4789,0086,-3.11,-2.52,4.0000,231.0000
1982-09-20 12:00:00 UTC,2445233.000000,29.6650,-93.4789,0086,-2.50,-4.33,5.0000,210.0000
1982-09-20 12:30:00 UTC,2445233.020833,29.6650,-93.4789,0086,-1.25,-5.87,6.0000,192.0000
1982-09-20 13:00:00 UTC,2445233.041667,29.6650,-93.4789,0086,0.42,-5.99,6.0000,176.0000
1982-09-20 13:30:00 UTC,2445233.062500,29.6650,-93.4789,0086,0.84,-5.94,6.0000,172.0000
1982-09-20 14:00:00 UTC,2445233.083333,29.6650,-93.4789,0086,1.57,-6.82,7.0000,167.0000
1982-09-20 14:30:00 UTC,2445233.104167,29.6650,-93.4789,0086,2.15,-5.60,6.0000,159.0000
1982-09-20 15:00:00 UTC,2445233.125000,29.6650,-93.4789,0086,1.12,-2.78,3.0000,158.0000
1982-09-20 15:30:00 UTC,2445233.145833,29.6650,-93.4789,0086,-0.80,-0.60,1.0000,233.0000
1982-09-20 16:00:00 UTC,2445233.166667,29.6650,-93.4789,0086,-2.40,1.81,3.0000,307.0000
1982-09-20 16:30:00 UTC,2445233.187500,29.6650,-93.4789,0086,-3.89,3.15,5.0000,309.0000
1982-09-20 17:00:00 UTC,2445233.208333,29.6650,-93.4789,0086,-3.47,3.60,5.0000,316.0000
1982-09-20 17:30:00 UTC,2445233.229167,29.6650,-93.4789,0086,-3.18,5.09,6.0000,328.0000
1982-09-20 18:00:00 UTC,2445233.250000,29.6650,-93.4789,0086,-3.18,6.24,7.0000,333.0000
1982-09-20 18:30:00 UTC,2445233.270833,29.6650,-93.4789,0086,-3.38,7.25,8.0000,335.0000
1982-09-20 19:00:00 UTC,2445233.291667,29.6650,-93.4789,0086,-3.00,7.42,8.0000,338.0000
1982-09-20 19:30:00 UTC,2445233.312500,29.6650,-93.4789,0086,-1.63,4.73,5.0000,341.0000
1982-09-20 20:00:00 UTC,2445233.333333,29.6650,-93.4789,0086,0.21,2.99,3.0000,4.0000
1982-09-20 20:30:00 UTC,2445233.354167,29.6650,-93.4789,0086,2.60,1.50,3.0000,60.0000
1982-09-20 21:00:00 UTC,2445233.375000,29.6650,-93.4789,0086,4.00,-0.14,4.0000,92.0000
1982-09-20 21:30:00 UTC,2445233.395833,29.6650,-93.4789,0086,4.92,-0.87,5.0000,100.0000
1982-09-20 22:00:00 UTC,2445233.416667,29.6650,-93.4789,0086,6.79,-1.69,7.0000,104.0000
1982-09-20 22:30:00 UTC,2445233.437500,29.6650,-93.4789,0086,8.09,-3.95,9.0000,116.0000
1982-09-20 23:00:00 UTC,2445233.458333,29.6650,-93.4789,0086,6.36,-6.36,9.0000,135.0000
1982-09-20 23:30:00 UTC,2445233.479167,29.6650,-93.4789,0086,4.00,-6.93,8.0000,150.0000
1982-09-21 00:00:00 UTC,2445233.500000,29.6650,-93.4789,0086,3.07,-6.29,7.0000,154.0000
1982-09-21 00:30:00 UTC,2445233.520833,29.6650,-93.4789,0086,2.15,-5.60,6.0000,159.0000
1982-09-21 01:00:00 UTC,2445233.541667,29.6650,-93.4789,0086,0.21,-2.99,3.0000,176.0000
1982-09-21 01:30:00 UTC,2445233.562500,29.6650,-93.4789,0086,-0.97,0.24,1.0000,284.0000
1982-09-21 02:00:00 UTC,2445233.583333,29.6650,-93.4789,0086,-0.36,0.93,1.0000,339.0000
1982-09-21 02:30:00 UTC,2445233.604167,29.6650,-93.4789,0086,-0.16,0.99,1.0000,351.0000
1982-09-21 03:00:00 UTC,2445233.625000,29.6650,-93.4789,0086,0.37,0.93,1.0000,22.0000
1982-09-21 03:30:00 UTC,2445233.645833,29.6650,-93.4789,0086,1.81,-0.85,2.0000,115.0000
1982-09-21 04:00:00 UTC,2445233.666667,29.6650,-93.4789,0086,5.25,-2.91,6.0000,119.0000
1982-09-21 04:30:00 UTC,2445233.687500,29.6650,-93.4789,0086,7.90,-1.25,8.0000,99.0000
1982-09-21 05:00:00 UTC,2445233.708333,29.6650,-93.4789,0086,8.91,1.25,9.0000,82.0000
1982-09-21 05:30:00 UTC,2445233.729167,29.6650,-93.4789,0086,8.97,0.78,9.0000,85.0000
1982-09-21 06:00:00 UTC,2445233.750000,29.6650,-93.4789,0086,7.97,-0.70,8.0000,95.0000
1982-09-21 06:30:00 UTC,2445233.770833,29.6650,-93.4789,0086,4.98,-0.44,5.0000,95.0000
1982-09-21 07:00:00 UTC,2445233.791667,29.6650,-93.4789,0086,3.00,-0.10,3.0000,92.0000
1982-09-21 07:30:00 UTC,2445233.812500,29.6650,-93.4789,0086,2.16,-2.08,3.0000,134.0000
1982-09-21 08:00:00 UTC,2445233.833333,29.6650,-93.4789,0086,0.95,-4.91,5.0000,169.0000
1982-09-21 08:30:00 UTC,2445233.854167,29.6650,-93.4789,0086,0.31,-5.99,6.0000,177.0000
1982-09-21 09:00:00 UTC,2445233.875000,29.6650,-93.4789,0086,0.73,-5.96,6.0000,173.0000
1982-09-21 09:30:00 UTC,2445233.895833,29.6650,-93.4789,0086,0.84,-7.96,8.0000,174.0000
1982-09-21 10:00:00 UTC,2445233.916667,29.6650,-93.4789,0086,-0.84,-7.96,8.0000,186.0000
1982-09-21 10:30:00 UTC,2445233.937500,29.6650,-93.4789,0086,-2.44,-5.48,6.0000,204.0000
1982-09-21 11:00:00 UTC,2445233.958333,29.6650,-93.4789,0086,-2.05,-2.19,3.0000,223.0000
1982-09-21 11:30:00 UTC,2445233.979167,29.6650,-93.4789,0086,-0.21,-1.99,2.0000,186.0000
1982-09-21 12:00:00 UTC,2445234.000000,29.6650,-93.4789,0086,1.36,-2.67,3.0000,153.0000
1982-09-21 12:30:00 UTC,2445234.020833,29.6650,-93.4789,0086,1.81,-2.40,3.0000,143.0000
1982-09-21 13:00:00 UTC,2445234.041667,29.6650,-93.4789,0086,2.23,-2.01,3.0000,132.0000
1982-09-21 13:30:00 UTC,2445234.062500,29.6650,-93.4789,0086,1.53,-1.29,2.0000,130.0000
1982-09-21 14:00:00 UTC,2445234.083333,29.6650,-93.4789,0086,0.63,-0.78,1.0000,141.0000
1982-09-21 14:30:00 UTC,2445234.104167,29.6650,-93.4789,0086,0.00,-0.00,0.0000,119.0000
1982-09-21 15:00:00 UTC,2445234.125000,29.6650,-93.4789,0086,2.00,-0.03,2.0000,91.0000
1982-09-21 15:30:00 UTC,2445234.145833,29.6650,-93.4789,0086,3.98,0.35,4.0000,85.0000
1982-09-21 16:00:00 UTC,2445234.166667,29.6650,-93.4789,0086,5.89,1.14,6.0000,79.0000
1982-09-21 16:30:00 UTC,2445234.187500,29.6650,-93.4789,0086,5.80,1.55,6.0000,75.0000
1982-09-21 17:00:00 UTC,2445234.208333,29.6650,-93.4789,0086,5.71,1.85,6.0000,72.0000
1982-09-21 17:30:00 UTC,2445234.229167,29.6650,-93.4789,0086,4.57,2.03,5.0000,66.0000
1982-09-21 18:00:00 UTC,2445234.250000,29.6650,-93.4789,0086,3.35,2.18,4.0000,57.0000
1982-09-21 18:30:00 UTC,2445234.270833,29.6650,-93.4789,0086,2.19,2.05,3.0000,47.0000
1982-09-21 19:00:00 UTC,2445234.291667,29.6650,-93.4789,0086,2.05,2.19,3.0000,43.0000
1982-09-21 19:30:00 UTC,2445234.312500,29.6650,-93.4789,0086,2.62,1.45,3.0000,61.0000
1982-09-21 20:00:00 UTC,2445234.333333,29.6650,-93.4789,0086,2.99,-0.21,3.0000,94.0000
1982-09-21 20:30:00 UTC,2445234.354167,29.6650,-93.4789,0086,2.40,-1.81,3.0000,127.0000
1982-09-21 21:00:00 UTC,2445234.375000,29.6650,-93.4789,0086,1.88,-3.53,4.0000,152.0000
1982-09-21 21:30:00 UTC,2445234.395833,29.6650,-93.4789,0086,0.42,-2.97,3.0000,172.0000
1982-09-21 22:00:00 UTC,2445234.416667,29.6650,-93.4789,0086,-0.59,-0.81,1.0000,216.0000
1982-09-21 22:30:00 UTC,2445234.437500,29.6650,-93.4789,0086,-2.00,-0.14,2.0000,266.0000
1982-09-21 23:00:00 UTC,2445234.458333,29.6650,-93.4789,0086,-1.99,0.17,2.0000,275.0000
1982-09-21 23:30:00 UTC,2445234.479167,29.6650,-93.4789,0086,-1.00,0.07,1.0000,274.0000
1982-09-22 00:00:00 UTC,2445234.500000,29.6650,-93.4789,0086,0.67,-0.74,1.0000,138.0000
1982-09-22 00:30:00 UTC,2445234.520833,29.6650,-93.4789,0086,1.91,-0.58,2.0000,107.0000
1982-09-22 01:00:00 UTC,2445234.541667,29.6650,-93.4789,0086,3.98,-0.42,4.0000,96.0000
1982-09-22 01:30:00 UTC,2445234.562500,29.6650,-93.4789,0086,3.98,-0.42,4.0000,96.0000
1982-09-22 02:00:00 UTC,2445234.583333,29.6650,-93.4789,0086,3.88,-0.97,4.0000,104.0000
1982-09-22 02:30:00 UTC,2445234.604167,29.6650,-93.4789,0086,2.96,-0.47,3.0000,99.0000
1982-09-22 03:00:00 UTC,2445234.625000,29.6650,-93.4789,0086,1.41,1.41,2.0000,45.0000
1982-09-22 03:30:00 UTC,2445234.645833,29.6650,-93.4789,0086,1.76,2.43,3.0000,36.0000
1982-09-22 04:00:00 UTC,2445234.666667,29.6650,-93.4789,0086,4.15,2.80,5.0000,56.0000
1982-09-22 04:30:00 UTC,2445234.687500,29.6650,-93.4789,0086,5.56,2.25,6.0000,68.0000
1982-09-22 05:00:00 UTC,2445234.708333,29.6650,-93.4789,0086,5.74,1.75,6.0000,73.0000
1982-09-22 05:30:00 UTC,2445234.729167,29.6650,-93.4789,0086,4.73,1.63,5.0000,71.0000
1982-09-22 06:00:00 UTC,2445234.750000,29.6650,-93.4789,0086,2.74,1.22,3.0000,66.0000
1982-09-22 06:30:00 UTC,2445234.770833,29.6650,-93.4789,0086,2.80,1.08,3.0000,69.0000
1982-09-22 07:00:00 UTC,2445234.791667,29.6650,-93.4789,0086,3.83,1.17,4.0000,73.0000
1982-09-22 07:30:00 UTC,2445234.812500,29.6650,-93.4789,0086,4.81,1.38,5.0000,74.0000
1982-09-22 08:00:00 UTC,2445234.833333,29.6650,-93.4789,0086,4.95,0.70,5.0000,82.0000
1982-09-22 08:30:00 UTC,2445234.854167,29.6650,-93.4789,0086,5.00,-0.09,5.0000,91.0000
1982-09-22 09:00:00 UTC,2445234.875000,29.6650,-93.4789,0086,3.93,-0.76,4.0000,101.0000
1982-09-22 09:30:00 UTC,2445234.895833,29.6650,-93.4789,0086,3.19,-2.41,4.0000,127.0000
1982-09-22 10:00:00 UTC,2445234.916667,29.6650,-93.4789,0086,2.80,-4.15,5.0000,146.0000
1982-09-22 10:30:00 UTC,2445234.937500,29.6650,-93.4789,0086,2.44,-5.48,6.0000,156.0000
1982-09-22 11:00:00 UTC,2445234.958333,29.6650,-93.4789,0086,1.45,-5.82,6.0000,166.0000
1982-09-22 11:30:00 UTC,2445234.979167,29.6650,-93.4789,0086,0.84,-5.94,6.0000,172.0000
1982-09-22 12:00:00 UTC,2445235.000000,29.6650,-93.4789,0086,0.94,-5.93,6.0000,171.0000
1982-09-22 12:30:00 UTC,2445235.020833,29.6650,-93.4789,0086,1.10,-6.91,7.0000,171.0000
1982-09-22 13:00:00 UTC,2445235.041667,29.6650,-93.4789,0086,0.24,-7.00,7.0000,178.0000
1982-09-22 13:30:00 UTC,2445235.062500,29.6650,-93.4789,0086,-1.34,-6.87,7.0000,191.0000
1982-09-22 14:00:00 UTC,2445235.083333,29.6650,-93.4789,0086,-2.54,-5.44,6.0000,205.0000
1982-09-22 14:30:00 UTC,2445235.104167,29.6650,-93.4789,0086,-2.80,-4.15,5.0000,214.0000
1982-09-22 15:00:00 UTC,2445235.125000,29.6650,-93.4789,0086,-2.18,-3.35,4.0000,213.0000
1982-09-22 15:30:00 UTC,2445235.145833,29.6650,-93.4789,0086,-2.72,-4.19,5.0000,213.0000
1982-09-22 16:00:00 UTC,2445235.166667,29.6650,-93.4789,0086,-3.89,-3.15,5.0000,231.0000
1982-09-22 16:30:00 UTC,2445235.187500,29.6650,-93.4789,0086,-5.77,-1.65,6.0000,254.0000
1982-09-22 17:00:00 UTC,2445235.208333,29.6650,-93.4789,0086,-6.97,-0.61,7.0000,265.0000
1982-09-22 17:30:00 UTC,2445235.229167,29.6650,-93.4789,0086,-8.00,0.28,8.0000,272.0000
1982-09-22 18:00:00 UTC,2445235.250000,29.6650,-93.4789,0086,-7.88,1.39,8.0000,280.0000
1982-09-22 18:30:00 UTC,2445235.270833,29.6650,-93.4789,0086,-8.73,2.18,9.0000,284.0000
1982-09-22 19:00:00 UTC,2445235.291667,29.6650,-93.4789,0086,-9.82,1.91,10.0000,281.0000
1982-09-22 19:30:00 UTC,2445235.312500,29.6650,-93.4789,0086,-10.89,1.53,11.0000,278.0000
1982-09-22 20:00:00 UTC,2445235.333333,29.6650,-93.4789,0086,-10.83,1.91,11.0000,280.0000
1982-09-22 20:30:00 UTC,2445235.354167,29.6650,-93.4789,0086,-9.90,1.39,10.0000,278.0000
1982-09-22 21:00:00 UTC,2445235.375000,29.6650,-93.4789,0086,-8.99,0.47,9.0000,273.0000
1982-09-22 21:30:00 UTC,2445235.395833,29.6650,-93.4789,0086,-9.00,0.16,9.0000,271.0000
1982-09-22 22:00:00 UTC,2445235.416667,29.6650,-93.4789,0086,-7.99,-0.42,8.0000,267.0000
1982-09-22 22:30:00 UTC,2445235.437500,29.6650,-93.4789,0086,-8.91,-1.25,9.0000,262.0000
1982-09-22 23:00:00 UTC,2445235.458333,29.6650,-93.4789,0086,-8.89,-1.41,9.0000,261.0000
1982-09-22 23:30:00 UTC,2445235.479167,29.6650,-93.4789,0086,-9.95,-1.05,10.0000,264.0000
1982-09-23 00:00:00 UTC,2445235.500000,29.6650,-93.4789,0086,-8.99,-0.31,9.0000,268.0000
1982-09-23 00:30:00 UTC,2445235.520833,29.6650,-93.4789,0086,-8.98,-0.63,9.0000,266.0000
1982-09-23 01:00:00 UTC,2445235.541667,29.6650,-93.4789,0086,-7.92,-1.11,8.0000,262.0000
1982-09-23 01:30:00 UTC,2445235.562500,29.6650,-93.4789,0086,-6.79,-1.69,7.0000,256.0000
1982-09-23 02:00:00 UTC,2445235.583333,29.6650,-93.4789,0086,-6.58,-2.39,7.0000,250.0000
1982-09-23 02:30:00 UTC,2445235.604167,29.6650,-93.4789,0086,-5.85,-1.35,6.0000,257.0000
1982-09-23 03:00:00 UTC,2445235.625000,29.6650,-93.4789,0086,-6.00,-0.21,6.0000,268.0000
1982-09-23 03:30:00 UTC,2445235.645833,29.6650,-93.4789,0086,-6.00,0.21,6.0000,272.0000
1982-09-23 04:00:00 UTC,2445235.666667,29.6650,-93.4789,0086,-6.96,0.73,7.0000,276.0000
1982-09-23 04:30:00 UTC,2445235.687500,29.6650,-93.4789,0086,-5.93,0.94,6.0000,279.0000
1982-09-23 05:00:00 UTC,2445235.708333,29.6650,-93.4789,0086,-4.97,0.52,5.0000,276.0000
1982-09-23 05:30:00 UTC,2445235.729167,29.6650,-93.4789,0086,-4.99,0.26,5.0000,273.0000
1982-09-23 06:00:00 UTC,2445235.750000,29.6650,-93.4789,0086,-5.00,0.09,5.0000,271.0000
1982-09-23 06:30:00 UTC,2445235.770833,29.6650,-93.4789,0086,-6.00,0.10,6.0000,271.0000
1982-09-23 07:00:00 UTC,2445235.791667,29.6650,-93.4789,0086,-5.98,0.52,6.0000,275.0000
1982-09-23 07:30:00 UTC,2445235.812500,29.6650,-93.4789,0086,-6.00,0.10,6.0000,271.0000
1982-09-23 08:00:00 UTC,2445235.833333,29.6650,-93.4789,0086,-6.00,-0.00,6.0000,270.0000
1982-09-23 08:30:00 UTC,2445235.854167,29.6650,-93.4789,0086,-6.91,1.10,7.0000,279.0000
1982-09-23 09:00:00 UTC,2445235.875000,29.6650,-93.4789,0086,-7.69,2.21,8.0000,286.0000
1982-09-23 09:30:00 UTC,2445235.895833,29.6650,-93.4789,0086,-8.56,2.78,9.0000,288.0000
1982-09-23 10:00:00 UTC,2445235.916667,29.6650,-93.4789,0086,-8.51,2.93,9.0000,289.0000
1982-09-23 10:30:00 UTC,2445235.937500,29.6650,-93.4789,0086,-8.51,2.93,9.0000,289.0000
1982-09-23 11:00:00 UTC,2445235.958333,29.6650,-93.4789,0086,-7.52,2.74,8.0000,290.0000
1982-09-23 11:30:00 UTC,2445235.979167,29.6650,-93.4789,0086,-8.51,2.93,9.0000,289.0000
1982-09-23 12:00:00 UTC,2445236.000000,29.6650,-93.4789,0086,-8.69,2.33,9.0000,285.0000
1982-09-23 12:30:00 UTC,2445236.020833,29.6650,-93.4789,0086,-7.69,2.21,8.0000,286.0000
1982-09-23 13:00:00 UTC,2445236.041667,29.6650,-93.4789,0086,-7.56,2.60,8.0000,289.0000
1982-09-23 13:30:00 UTC,2445236.062500,29.6650,-93.4789,0086,-6.58,2.39,7.0000,290.0000
1982-09-23 14:00:00 UTC,2445236.083333,29.6650,-93.4789,0086,-7.73,2.07,8.0000,285.0000
1982-09-23 14:30:00 UTC,2445236.104167,29.6650,-93.4789,0086,-7.79,1.80,8.0000,283.0000
1982-09-23 15:00:00 UTC,2445236.125000,29.6650,-93.4789,0086,-8.51,2.93,9.0000,289.0000
1982-09-23 15:30:00 UTC,2445236.145833,29.6650,-93.4789,0086,-9.27,3.75,10.0000,292.0000
1982-09-23 16:00:00 UTC,2445236.166667,29.6650,-93.4789,0086,-7.56,2.60,8.0000,289.0000
1982-09-23 16:30:00 UTC,2445236.187500,29.6650,-93.4789,0086,-5.80,1.55,6.0000,285.0000
1982-09-23 17:00:00 UTC,2445236.208333,29.6650,-93.4789,0086,-4.94,0.78,5.0000,279.0000
1982-09-23 17:30:00 UTC,2445236.229167,29.6650,-93.4789,0086,-4.91,0.95,5.0000,281.0000
1982-09-23 18:00:00 UTC,2445236.250000,29.6650,-93.4789,0086,-5.80,1.55,6.0000,285.0000
1982-09-23 18:30:00 UTC,2445236.270833,29.6650,-93.4789,0086,-6.76,1.81,7.0000,285.0000
1982-09-23 19:00:00 UTC,2445236.291667,29.6650,-93.4789,0086,-7.79,1.80,8.0000,283.0000
1982-09-23 19:30:00 UTC,2445236.312500,29.6650,-93.4789,0086,-7.85,1.53,8.0000,281.0000
1982-09-23 20:00:00 UTC,2445236.333333,29.6650,-93.4789,0086,-7.92,1.11,8.0000,278.0000
1982-09-23 20:30:00 UTC,2445236.354167,29.6650,-93.4789,0086,-6.98,0.49,7.0000,274.0000
1982-09-23 21:00:00 UTC,2445236.375000,29.6650,-93.4789,0086,-6.99,0.37,7.0000,273.0000
1982-09-23 21:30:00 UTC,2445236.395833,29.6650,-93.4789,0086,-7.00,-0.12,7.0000,269.0000
1982-09-23 22:00:00 UTC,2445236.416667,29.6650,-93.4789,0086,-5.97,-0.63,6.0000,264.0000
1982-09-23 22:30:00 UTC,2445236.437500,29.6650,-93.4789,0086,-5.96,-0.73,6.0000,263.0000
1982-09-23 23:00:00 UTC,2445236.458333,29.6650,-93.4789,0086,-4.87,-1.12,5.0000,257.0000
1982-09-23 23:30:00 UTC,2445236.479167,29.6650,-93.4789,0086,-4.76,-1.55,5.0000,252.0000
1982-09-24 00:00:00 UTC,2445236.500000,29.6650,-93.4789,0086,-5.87,-1.25,6.0000,258.0000
1982-09-24 00:30:00 UTC,2445236.520833,29.6650,-93.4789,0086,-6.91,-1.10,7.0000,261.0000
1982-09-24 01:00:00 UTC,2445236.541667,29.6650,-93.4789,0086,-7.79,-1.80,8.0000,257.0000
1982-09-24 01:30:00 UTC,2445236.562500,29.6650,-93.4789,0086,-7.56,-2.60,8.0000,251.0000
1982-09-24 02:00:00 UTC,2445236.583333,29.6650,-93.4789,0086,-6.62,-2.28,7.0000,251.0000
1982-09-24 02:30:00 UTC,2445236.604167,29.6650,-93.4789,0086,-6.76,-1.81,7.0000,255.0000
1982-09-24 03:00:00 UTC,2445236.625000,29.6650,-93.4789,0086,-5.74,-1.75,6.0000,253.0000
1982-09-24 03:30:00 UTC,2445236.645833,29.6650,-93.4789,0086,-5.67,-1.95,6.0000,251.0000
1982-09-24 04:00:00 UTC,2445236.666667,29.6650,-93.4789,0086,-6.87,-1.34,7.0000,259.0000
1982-09-24 04:30:00 UTC,2445236.687500,29.6650,-93.4789,0086,-6.97,-0.61,7.0000,265.0000
1982-09-24 05:00:00 UTC,2445236.708333,29.6650,-93.4789,0086,-5.97,-0.63,6.0000,264.0000
1982-09-24 05:30:00 UTC,2445236.729167,29.6650,-93.4789,0086,-5.91,-1.04,6.0000,260.0000
1982-09-24 06:00:00 UTC,2445236.750000,29.6650,-93.4789,0086,-4.94,-0.78,5.0000,261.0000
1982-09-24 06:30:00 UTC,2445236.770833,29.6650,-93.4789,0086,-5.00,-0.09,5.0000,269.0000
1982-09-24 07:00:00 UTC,2445236.791667,29.6650,-93.4789,0086,-5.99,-0.42,6.0000,266.0000
1982-09-24 07:30:00 UTC,2445236.812500,29.6650,-93.4789,0086,-6.97,-0.61,7.0000,265.0000
1982-09-24 08:00:00 UTC,2445236.833333,29.6650,-93.4789,0086,-7.00,0.24,7.0000,272.0000
1982-09-24 08:30:00 UTC,2445236.854167,29.6650,-93.4789,0086,-6.00,-0.00,6.0000,270.0000
1982-09-24 09:00:00 UTC,2445236.875000,29.6650,-93.4789,0086,-5.93,-0.94,6.0000,261.0000